Hourly Data Report for October 29, 2016

All times are specified in Local Standard Time (LST). Add 1 hour to adjust for Daylight Saving Time where and when it is observed.

KITCHENER/WATERLOO
ONTARIO

43°27'39.000" N
80°22'43.000" W
321.60 m
6144239
71368
YKF

Download Data

Hourly Data (October 2016)
Hourly Data Report for October 29, 2016
Temp Definition
°C
Dew Point Temp Definition
°C
Rel Hum Definition
%
Wind Dir Definition
10's deg

Wind Spd Definition
km/h
Visibility Definition
km
Stn Press Definition
kPa
Hmdx Definition


Wind Chill Definition


Weather Definition


TIME
00:00 Legend Double Dagger 7.4 5.1 85 18 15 16.1 97.80     LegendNANA
01:00 Legend Double Dagger 7.7 5.5 86 18 13 16.1 97.71     LegendNANA
02:00 Legend Double Dagger 8.4 6.2 86 19 24 16.1 97.58     LegendNANA
03:00 Legend Double Dagger 9.6 7.4 86 19 21 16.1 97.42     LegendNANA
04:00 Legend Double Dagger 12.1 8.8 80 20 22 16.1 97.32     LegendNANA
05:00 Legend Double Dagger 13.2 9.7 79 21 24 16.1 97.28     LegendNANA
06:00 Legend Double Dagger 13.7 10.0 78 22 30 16.1 97.27     LegendNANA
07:00 Legend Double Dagger 13.8 10.3 79 22 26 16.1 97.24     LegendNANA
08:00 Legend Double Dagger 14.5 10.9 79 23 24 16.1 97.25     LegendNANA
09:00 Legend Double Dagger 15.5 11.8 78 22 28 16.1 97.22     LegendNANA
10:00 Legend Double Dagger 16.1 12.5 79 24 21 16.1 97.21     LegendNANA
11:00 Legend Double Dagger 16.7 13.1 79 24 26 16.1 97.20     LegendNANA
12:00 Legend Double Dagger 17.4 13.6 78 26 30 16.1 97.18     LegendNANA
13:00 Legend Double Dagger 17.7 13.9 78 26 28 16.1 97.16     LegendNANA
14:00 Legend Double Dagger 18.3 14.3 77 27 24 16.1 97.16     LegendNANA
15:00 Legend Double Dagger 18.0 14.0 77 27 24 16.1 97.20     LegendNANA
16:00 Legend Double Dagger 17.9 13.7 76 28 26 16.1 97.28     LegendNANA
17:00 Legend Double Dagger 15.0 12.4 84 33 30 12.9 97.38     LegendNANA
18:00 Legend Double Dagger 12.1 10.5 90 31 18 12.9 97.45     LegendNANA
19:00 Legend Double Dagger 11.5 9.1 85 31 11 16.1 97.55     LegendNANA
20:00 Legend Double Dagger 11.0 8.1 82 31 17 16.1 97.60     LegendNANA
21:00 Legend Double Dagger 10.6 7.7 82 33 13 16.1 97.61     LegendNANA
22:00 Legend Double Dagger 9.9 7.5 85 29 9 16.1 97.65     LegendNANA
23:00 Legend Double Dagger 9.6 7.5 87 30 13 16.1 97.63     LegendNANA

Notes on Data Quality.

Legend

  • E = Estimated
  • M = Missing
  • NA = Not Available
  • ‡ = Partner data that is not subject to review by the National Climate Archives
Date modified: